Time,TemperatureF,DewpointF,PressureIn,WindDirection,WindDirectionDegrees,WindSpeedMPH,WindSpeedGustMPH,Humidity,HourlyPrecipIn,Conditions,Clouds,dailyrainin,SoftwareType,DateUTC
2013-12-03 00:07:00,47.5,47.2,29.75,WNW,292,0.0,-999.0,99,-99.99,,,0.00,Acu-Link.com,2013-12-03 05:07:00,
2013-12-03 00:23:00,47.5,47.2,29.75,SSE,157,0.0,-999.0,99,-99.99,,,0.00,Acu-Link.com,2013-12-03 05:23:00,
2013-12-03 00:38:00,47.5,47.2,29.75,West,270,0.0,-999.0,99,-99.99,,,0.00,Acu-Link.com,2013-12-03 05:38:00,
2013-12-03 00:54:00,47.5,47.2,29.74,South,180,0.0,-999.0,99,-99.99,,,0.00,Acu-Link.com,2013-12-03 05:54:00,
2013-12-03 01:09:00,47.5,47.2,29.75,West,270,0.0,-999.0,99,-99.99,,,0.00,Acu-Link.com,2013-12-03 06:09:00,
2013-12-03 01:24:00,47.5,47.2,29.75,West,270,0.0,-999.0,99,-99.99,,,0.00,Acu-Link.com,2013-12-03 06:24:00,
2013-12-03 01:39:00,47.5,47.2,29.75,SW,225,0.0,-999.0,99,-99.99,,,0.02,Acu-Link.com,2013-12-03 06:39:00,
2013-12-03 01:55:00,47.8,47.5,29.74,SSW,202,0.0,-999.0,99,-99.99,,,0.03,Acu-Link.com,2013-12-03 06:55:00,
2013-12-03 02:10:00,47.8,47.5,29.74,South,180,0.0,-999.0,99,-99.99,,,0.03,Acu-Link.com,2013-12-03 07:10:00,
2013-12-03 02:25:00,48.0,47.7,29.74,South,180,0.0,-999.0,99,-99.99,,,0.03,Acu-Link.com,2013-12-03 07:25:00,
2013-12-03 02:41:00,48.2,47.9,29.75,SW,225,0.0,-999.0,99,-99.99,,,0.03,Acu-Link.com,2013-12-03 07:41:00,
2013-12-03 02:56:00,48.2,47.9,29.75,South,180,0.0,-999.0,99,-99.99,,,0.03,Acu-Link.com,2013-12-03 07:56:00,
2013-12-03 03:11:00,48.4,48.1,29.75,West,270,0.0,-999.0,99,-99.99,,,0.05,Acu-Link.com,2013-12-03 08:11:00,
2013-12-03 03:26:00,48.4,48.1,29.75,NW,315,0.0,-999.0,99,-99.99,,,0.07,Acu-Link.com,2013-12-03 08:26:00,
2013-12-03 03:42:00,48.6,48.3,29.74,NW,315,0.0,-999.0,99,-99.99,,,0.07,Acu-Link.com,2013-12-03 08:42:00,
2013-12-03 03:57:00,48.6,48.3,29.75,NW,315,0.0,-999.0,99,-99.99,,,0.07,Acu-Link.com,2013-12-03 08:57:00,
2013-12-03 04:12:00,48.6,48.3,29.75,NW,315,0.0,-999.0,99,-99.99,,,0.07,Acu-Link.com,2013-12-03 09:12:00,
2013-12-03 04:27:00,48.7,48.4,29.75,West,270,0.0,-999.0,99,-99.99,,,0.07,Acu-Link.com,2013-12-03 09:27:00,
2013-12-03 04:42:00,48.7,48.4,29.75,South,180,0.0,-999.0,99,-99.99,,,0.07,Acu-Link.com,2013-12-03 09:42:00,
2013-12-03 04:58:00,48.9,48.6,29.75,West,270,0.0,-999.0,99,-99.99,,,0.07,Acu-Link.com,2013-12-03 09:58:00,
2013-12-03 05:13:00,48.9,48.6,29.76,SSW,202,0.0,-999.0,99,-99.99,,,0.07,Acu-Link.com,2013-12-03 10:13:00,
2013-12-03 05:28:00,48.9,48.6,29.75,West,270,0.0,-999.0,99,-99.99,,,0.07,Acu-Link.com,2013-12-03 10:28:00,
2013-12-03 05:43:00,49.1,48.8,29.76,South,180,0.0,-999.0,99,-99.99,,,0.07,Acu-Link.com,2013-12-03 10:43:00,
2013-12-03 05:58:00,49.1,48.8,29.77,South,180,0.0,-999.0,99,-99.99,,,0.07,Acu-Link.com,2013-12-03 10:58:00,
2013-12-03 06:14:00,49.1,48.8,29.77,WNW,292,0.0,-999.0,99,-99.99,,,0.07,Acu-Link.com,2013-12-03 11:14:00,
2013-12-03 06:29:00,49.1,48.8,29.77,SSE,157,0.0,-999.0,99,-99.99,,,0.07,Acu-Link.com,2013-12-03 11:29:00,
2013-12-03 06:44:00,49.1,48.8,29.77,SSW,202,0.0,-999.0,99,-99.99,,,0.07,Acu-Link.com,2013-12-03 11:44:00,
2013-12-03 07:00:00,49.3,49.0,29.77,SSW,202,0.0,-999.0,99,-99.99,,,0.07,Acu-Link.com,2013-12-03 12:00:00,
2013-12-03 07:15:00,49.3,49.0,29.76,South,180,0.0,-999.0,99,-99.99,,,0.07,Acu-Link.com,2013-12-03 12:15:00,
2013-12-03 07:30:00,49.5,49.2,29.77,South,180,0.0,-999.0,99,-99.99,,,0.07,Acu-Link.com,2013-12-03 12:30:00,
2013-12-03 07:45:00,49.6,49.3,29.77,East,90,0.0,-999.0,99,-99.99,,,0.07,Acu-Link.com,2013-12-03 12:45:00,
2013-12-03 08:00:00,50.0,49.7,29.77,ESE,112,0.0,-999.0,99,-99.99,,,0.07,Acu-Link.com,2013-12-03 13:00:00,
2013-12-03 08:16:00,50.2,49.9,29.77,SSE,157,0.0,-999.0,99,-99.99,,,0.07,Acu-Link.com,2013-12-03 13:16:00,
2013-12-03 08:32:00,50.4,50.1,29.78,East,90,0.0,-999.0,99,-99.99,,,0.07,Acu-Link.com,2013-12-03 13:32:00,
2013-12-03 08:47:00,50.5,50.2,29.79,SW,225,0.0,-999.0,99,-99.99,,,0.07,Acu-Link.com,2013-12-03 13:47:00,
2013-12-03 09:03:00,50.9,50.6,29.79,NE,45,0.0,-999.0,99,-99.99,,,0.07,Acu-Link.com,2013-12-03 14:03:00,
2013-12-03 09:19:00,51.4,51.1,29.79,ESE,112,0.0,-999.0,99,-99.99,,,0.07,Acu-Link.com,2013-12-03 14:19:00,
2013-12-03 09:34:00,52.0,51.7,29.80,ESE,112,0.0,-999.0,99,-99.99,,,0.07,Acu-Link.com,2013-12-03 14:34:00,
2013-12-03 09:49:00,52.3,52.0,29.81,SSW,202,0.0,-999.0,99,-99.99,,,0.08,Acu-Link.com,2013-12-03 14:49:00,
2013-12-03 10:04:00,53.1,52.8,29.81,ESE,112,0.0,-999.0,99,-99.99,,,0.08,Acu-Link.com,2013-12-03 15:04:00,
2013-12-03 10:19:00,53.4,53.1,29.81,WSW,247,0.0,-999.0,99,-99.99,,,0.08,Acu-Link.com,2013-12-03 15:19:00,
2013-12-03 10:34:00,54.0,53.7,29.81,SSE,157,0.0,-999.0,99,-99.99,,,0.08,Acu-Link.com,2013-12-03 15:34:00,
2013-12-03 10:50:00,54.7,53.9,29.81,ESE,112,0.0,-999.0,97,-99.99,,,0.08,Acu-Link.com,2013-12-03 15:50:00,
2013-12-03 11:05:00,55.6,54.2,29.81,SE,135,0.0,-999.0,95,-99.99,,,0.08,Acu-Link.com,2013-12-03 16:05:00,
2013-12-03 11:20:00,55.9,54.5,29.81,South,180,0.0,-999.0,95,-99.99,,,0.08,Acu-Link.com,2013-12-03 16:20:00,
2013-12-03 11:35:00,55.8,54.1,29.80,SSE,157,0.0,-999.0,94,-99.99,,,0.08,Acu-Link.com,2013-12-03 16:35:00,
2013-12-03 11:50:00,55.9,54.2,29.80,East,90,0.0,-999.0,94,-99.99,,,0.08,Acu-Link.com,2013-12-03 16:50:00,
2013-12-03 12:05:00,56.8,54.8,29.79,South,180,0.0,-999.0,93,-99.99,,,0.08,Acu-Link.com,2013-12-03 17:05:00,
2013-12-03 12:20:00,57.0,54.1,29.78,NNE,22,1.7,-999.0,90,-99.99,,,0.08,Acu-Link.com,2013-12-03 17:20:00,
2013-12-03 12:36:00,57.0,54.7,29.78,SSE,157,0.0,-999.0,92,-99.99,,,0.08,Acu-Link.com,2013-12-03 17:36:00,
2013-12-03 12:51:00,57.6,55.6,29.77,SSE,157,0.0,-999.0,93,-99.99,,,0.08,Acu-Link.com,2013-12-03 17:51:00,
2013-12-03 13:06:00,57.9,54.1,29.76,SSE,157,0.0,-999.0,87,-99.99,,,0.08,Acu-Link.com,2013-12-03 18:06:00,
2013-12-03 13:22:00,57.4,54.5,29.76,SSE,157,0.0,-999.0,90,-99.99,,,0.08,Acu-Link.com,2013-12-03 18:22:00,
2013-12-03 13:37:00,56.8,54.5,29.75,SSE,157,0.0,-999.0,92,-99.99,,,0.08,Acu-Link.com,2013-12-03 18:37:00,
2013-12-03 13:52:00,57.4,54.2,29.75,ESE,112,0.0,-999.0,89,-99.99,,,0.08,Acu-Link.com,2013-12-03 18:52:00,
2013-12-03 14:10:00,57.4,54.5,29.75,ESE,112,0.0,-999.0,90,-99.99,,,0.08,Acu-Link.com,2013-12-03 19:10:00,
2013-12-03 14:25:00,57.0,54.4,29.75,SSE,157,0.0,-999.0,91,-99.99,,,0.08,Acu-Link.com,2013-12-03 19:25:00,
2013-12-03 14:40:00,57.0,55.0,29.75,South,180,0.0,-999.0,93,-99.99,,,0.08,Acu-Link.com,2013-12-03 19:40:00,
2013-12-03 14:55:00,56.8,54.8,29.76,SW,225,0.0,-999.0,93,-99.99,,,0.08,Acu-Link.com,2013-12-03 19:55:00,
2013-12-03 15:10:00,56.3,54.9,29.75,SSW,202,0.0,-999.0,95,-99.99,,,0.08,Acu-Link.com,2013-12-03 20:10:00,
2013-12-03 15:25:00,55.9,55.1,29.75,SSE,157,0.0,-999.0,97,-99.99,,,0.08,Acu-Link.com,2013-12-03 20:25:00,
2013-12-03 15:41:00,55.6,55.3,29.75,NW,315,0.0,-999.0,99,-99.99,,,0.08,Acu-Link.com,2013-12-03 20:41:00,
2013-12-03 15:56:00,55.6,55.3,29.76,SE,135,0.0,-999.0,99,-99.99,,,0.08,Acu-Link.com,2013-12-03 20:56:00,
2013-12-03 16:11:00,55.4,55.1,29.76,South,180,0.0,-999.0,99,-99.99,,,0.08,Acu-Link.com,2013-12-03 21:11:00,
2013-12-03 16:26:00,55.4,55.1,29.76,NNW,337,0.0,-999.0,99,-99.99,,,0.08,Acu-Link.com,2013-12-03 21:26:00,
2013-12-03 16:41:00,55.2,54.9,29.76,NNW,337,0.0,-999.0,99,-99.99,,,0.08,Acu-Link.com,2013-12-03 21:41:00,
2013-12-03 16:56:00,55.0,54.7,29.76,ESE,112,0.0,-999.0,99,-99.99,,,0.08,Acu-Link.com,2013-12-03 21:56:00,
2013-12-03 17:12:00,54.9,54.6,29.77,West,270,0.0,-999.0,99,-99.99,,,0.08,Acu-Link.com,2013-12-03 22:12:00,
2013-12-03 17:27:00,54.7,54.4,29.77,West,270,0.0,-999.0,99,-99.99,,,0.08,Acu-Link.com,2013-12-03 22:27:00,
2013-12-03 17:42:00,54.5,54.2,29.77,ESE,112,0.0,-999.0,99,-99.99,,,0.08,Acu-Link.com,2013-12-03 22:42:00,
2013-12-03 17:57:00,54.3,54.0,29.77,SSW,202,0.0,-999.0,99,-99.99,,,0.08,Acu-Link.com,2013-12-03 22:57:00,
2013-12-03 18:13:00,54.3,54.0,29.76,South,180,0.0,-999.0,99,-99.99,,,0.09,Acu-Link.com,2013-12-03 23:13:00,
2013-12-03 18:28:00,54.1,53.8,29.77,ESE,112,0.0,-999.0,99,-99.99,,,0.09,Acu-Link.com,2013-12-03 23:28:00,
2013-12-03 18:43:00,54.1,53.8,29.78,West,270,0.0,-999.0,99,-99.99,,,0.11,Acu-Link.com,2013-12-03 23:43:00,
2013-12-03 18:59:00,54.1,53.8,29.79,WNW,292,0.0,-999.0,99,-99.99,,,0.19,Acu-Link.com,2013-12-03 23:59:00,
2013-12-03 19:15:00,54.1,53.8,29.79,South,180,0.0,-999.0,99,-99.99,,,0.22,Acu-Link.com,2013-12-04 00:15:00,
2013-12-03 19:30:00,54.1,53.8,29.79,WNW,292,0.0,-999.0,99,-99.99,,,0.23,Acu-Link.com,2013-12-04 00:30:00,
2013-12-03 19:45:00,54.1,53.8,29.80,WNW,292,0.0,-999.0,99,-99.99,,,0.26,Acu-Link.com,2013-12-04 00:45:00,
2013-12-03 20:01:00,54.1,53.8,29.79,SSE,157,0.0,-999.0,99,-99.99,,,0.29,Acu-Link.com,2013-12-04 01:01:00,
2013-12-03 20:17:00,54.1,53.8,29.79,SW,225,0.0,-999.0,99,-99.99,,,0.37,Acu-Link.com,2013-12-04 01:17:00,
2013-12-03 20:32:00,54.1,53.8,29.79,SW,225,0.0,-999.0,99,-99.99,,,0.37,Acu-Link.com,2013-12-04 01:32:00,
2013-12-03 20:47:00,54.1,53.8,29.80,West,270,0.0,-999.0,99,-99.99,,,0.37,Acu-Link.com,2013-12-04 01:47:00,
2013-12-03 21:02:00,54.1,53.8,29.80,WNW,292,2.2,-999.0,99,-99.99,,,0.37,Acu-Link.com,2013-12-04 02:02:00,
2013-12-03 21:17:00,54.1,53.8,29.79,SSW,202,0.0,-999.0,99,-99.99,,,0.37,Acu-Link.com,2013-12-04 02:17:00,
2013-12-03 21:33:00,54.1,53.8,29.79,West,270,0.0,-999.0,99,-99.99,,,0.37,Acu-Link.com,2013-12-04 02:33:00,
2013-12-03 21:48:00,54.1,53.8,29.80,WNW,292,0.0,-999.0,99,-99.99,,,0.37,Acu-Link.com,2013-12-04 02:48:00,
2013-12-03 22:03:00,54.0,53.7,29.80,SSE,157,0.0,-999.0,99,-99.99,,,0.37,Acu-Link.com,2013-12-04 03:03:00,
2013-12-03 22:18:00,54.0,53.7,29.80,WNW,292,0.0,-999.0,99,-99.99,,,0.38,Acu-Link.com,2013-12-04 03:18:00,
2013-12-03 22:33:00,54.0,53.7,29.81,SSW,202,0.0,-999.0,99,-99.99,,,0.39,Acu-Link.com,2013-12-04 03:33:00,
2013-12-03 22:50:00,54.0,53.7,29.82,South,180,0.0,-999.0,99,-99.99,,,0.39,Acu-Link.com,2013-12-04 03:50:00,
2013-12-03 23:05:00,54.0,53.7,29.82,ESE,112,0.0,-999.0,99,-99.99,,,0.39,Acu-Link.com,2013-12-04 04:05:00,
2013-12-03 23:20:00,54.0,53.7,29.83,South,180,0.0,-999.0,99,-99.99,,,0.39,Acu-Link.com,2013-12-04 04:20:00,
2013-12-03 23:35:00,54.0,53.7,29.82,West,270,0.0,-999.0,99,-99.99,,,0.39,Acu-Link.com,2013-12-04 04:35:00,
2013-12-03 23:50:00,54.0,53.7,29.83,WSW,247,0.0,-999.0,99,-99.99,,,0.39,Acu-Link.com,2013-12-04 04:50:00,